dropcam.com alexa rank chart, dropcam.com alexa rank daily changes

dropcam.com alexa rank chart, dropcam.com alexa rank daily changes

dropcam.com
Actual rank:
110 368

RANK HISTORY

Date Rank Diff
2017/05/23 110 368 -283
2017/05/22 110 651 -18
2017/05/21 110 669 -388
2017/05/20 111 057 +493
2017/05/19 110 564 +428
2017/05/18 110 136 +711
2017/05/17 109 425 +990
2017/05/16 108 435 +192
2017/05/15 108 243 -2 033
2017/05/14 110 276 -613
2017/05/13 110 889 +857
2017/05/12 110 032 -764
2017/05/11 110 796 +573
2017/05/10 110 223 +777
2017/05/09 109 446 -284
2017/05/08 109 730 -1 036
2017/05/07 110 766 +934
2017/05/06 109 832 -671
2017/05/05 110 503 -41
2017/05/04 110 544 +291
2017/05/03 110 253 +1 836
2017/05/02 108 417 +1 094
2017/05/01 107 323 +1 837
2017/04/30 105 486 +394
2017/04/29 105 092 +205
2017/04/28 104 887 +423
2017/04/27 104 464 +671
2017/04/26 103 793 +398
2017/04/25 103 395 +388
2017/04/24 103 007 +790
2017/04/23 102 217 -623
2017/04/22 102 840 +2 578
2017/04/21 100 262 -221
2017/04/20 100 483 +63
2017/04/19 100 420 +1 355
2017/04/18 99 065 -810
2017/04/17 99 875 -58
2017/04/16 99 933 +1 302
2017/04/15 98 631 +429
2017/04/14 98 202 +629
2017/04/13 97 573 -136
2017/04/12 97 709 +316
2017/04/11 97 393 -639
2017/04/10 98 032 -820
2017/04/09 98 852 -185
2017/04/08 99 037 -96
2017/04/07 99 133 +105
2017/04/06 99 028 +502
2017/04/05 98 526 +520
2017/04/04 98 006 -606
2017/04/03 98 612 -1 704
2017/04/02 100 316 -1 218
2017/04/01 101 534 +495
2017/03/31 101 039 -1 639
2017/03/30 102 678 -86
2017/03/29 102 764 -835
2017/03/28 103 599 +215
2017/03/27 103 384 -1 741
2017/03/26 105 125 -1 654
2017/03/25 106 779 -2 147
2017/03/24 108 926

WIDGET FOR YOUR SITE

DOMAINS WITH THE NEAREST RANK

Domain Rank
fvdspeeddial.com 110 363
znanje.hr 110 364
xungou.com 110 365
usccreditunion.org 110 366
asapconnected.com 110 367
dropcam.com 110 368
drama365.se 110 369
secure-afterpay.com.au 110 370
nf323.com 110 371
mobtakeran.com 110 372
dinghuo123.com 110 373

DOMAINS WITH THE NEAREST RANK BY TLD .com

Domain Rank
points2shop.com 110 361
survivingnjapan.com 110 362
fvdspeeddial.com 110 363
xungou.com 110 365
asapconnected.com 110 367
dropcam.com 110 368
nf323.com 110 371
mobtakeran.com 110 372
dinghuo123.com 110 373
superhookup.com 110 374
feedeen.com 110 375